This demonstration page uses our WeatherBlox Daily Observations layout. Learn more.

Left ArrowRight Arrow

Hourly Observations for December 14, 2019

Temp ( °F °C ) Dew Point ( °F °C ) Humidity (%) Winds ( mph kmh ) Pressure ( in mb ) Visibility ( mi km ) Precip ( " mm )
12:39 am 00:39 Cloudy 30 -1 27 -3 86 86 N 13 20 30.04 1017 10 16 0.00 0.00
12:56 am 00:56 Cloudy 30 -1.1 26 -3.3 85 85 N 13 20 29.97 1015 10 16 0.00 0.00
1:56 am 01:56 Cloudy 31 -0.6 26 -3.3 82 82 N 10 17 29.97 1015 10 16 0.00 0.00
2:56 am 02:56 Cloudy 29 -1.7 25 -3.9 85 85 N 15 24 29.98 1015 10 16 0.00 0.00
3:56 am 03:56 Cloudy 29 -1.7 25 -3.9 85 85 N 17 28 29.98 1015 10 16 0.00 0.00
4:56 am 04:56 Cloudy 27 -2.8 25 -3.9 92 92 NNE 12 19 29.98 1015 10 16 0.00 0.00
5:56 am 05:56 Cloudy 26 -3.3 23 -5 88 88 NNE 13 20 29.98 1015 10 16 0.00 0.00
6:56 am 06:56 Cloudy 24 -4.4 21 -6.1 88 88 NNE 12 19 30.01 1016 10 16 0.00 0.00
7:56 am 07:56 Cloudy 23 -5 20 -6.7 88 88 NE 15 24 30.00 1016 7 11 0.00 0.00
8:56 am 08:56 Cloudy 21 -6.1 18 -7.8 88 88 NNE 13 20 30.03 1017 10 16 0.00 0.00
9:24 am 09:24 Cloudy 21 -6 18 -8 86 86 NNE 10 17 30.13 1020 10 16 0.00 0.00
9:49 am 09:49 Cloudy 21 -6 16 -9 80 80 NE 6 9 30.13 1020 10 16 0.00 0.00
9:56 am 09:56 Cloudy 21 -6.1 16 -8.9 81 81 NNE 7 11 30.06 1018 10 16 0.00 0.00
10:13 am 10:13 Cloudy 21 -6 18 -8 86 86 NNE 5 7 30.14 1021 10 16 0.00 0.00
10:29 am 10:29 Cloudy 21 -6 18 -8 86 86 NNE 5 7 30.15 1021 10 16 0.00 0.00
10:56 am 10:56 Cloudy 23 -5 19 -7.2 85 85 Calm 30.06 1018 10 16 0.00 0.00
11:44 am 11:44 Cloudy 25 -4 18 -8 74 74 ENE 5 7 30.11 1020 10 16 0.00 0.00
11:56 am 11:56 Cloudy 23 -5 17 -8.3 78 78 E 3 6 30.04 1017 10 16 0.00 0.00
12:18 pm 12:18 Cloudy 25 -4 18 -8 74 74 NE 5 7 30.10 1019 10 16 0.00 0.00
12:32 pm 12:32 Cloudy 25 -4 16 -9 69 69 NE 5 7 30.09 1019 10 16 0.00 0.00
12:42 pm 12:42 Cloudy 25 -4 18 -8 74 74 ENE 7 11 30.08 1018 10 16 0.00 0.00
12:49 pm 12:49 Cloudy 25 -4 18 -8 74 74 ENE 5 7 30.07 1018 10 16 0.00 0.00
12:56 pm 12:56 Cloudy 25 -3.9 17 -8.3 72 72 E 7 11 30.00 1016 10 16 0.00 0.00
1:56 pm 13:56 Cloudy 25 -3.9 17 -8.3 72 72 ENE 5 7 29.98 1015 10 16 0.00 0.00
2:56 pm 14:56 Cloudy 25 -3.9 17 -8.3 72 72 ENE 8 13 29.98 1015 10 16 0.00 0.00
3:56 pm 15:56 Cloudy 24 -4.4 18 -7.8 77 77 E 10 17 29.97 1015 10 16 0.00 0.00
4:56 pm 16:56 Cloudy 24 -4.4 18 -7.8 77 77 E 10 17 29.99 1016 10 16 0.00 0.00
5:56 pm 17:56 Cloudy 24 -4.4 18 -7.8 77 77 E 8 13 30.01 1016 10 16 0.00 0.00
6:30 pm 18:30 Cloudy with Light Snow 23 -5 18 -8 80 80 E 7 11 30.08 1018 4 6 0.00 0.00
6:56 pm 18:56 Cloudy with Light Snow 23 -5 19 -7.2 85 85 E 8 13 30.02 1017 4 6 0.00 0.00
7:20 pm 19:20 Cloudy with Light Snow 21 -6 19 -7 93 93 E 8 13 30.09 1019 3 5 0.00 0.00
7:56 pm 19:56 Cloudy with Light Snow 22 -5.6 19 -7.2 89 89 E 9 15 30.01 1016 3 5 0.00 0.00
8:01 pm 20:01 Cloudy with Light Snow 21 -6 19 -7 93 93 E 9 15 30.08 1019 3 4 0.00 0.00
8:27 pm 20:27 Cloudy with Light Snow 21 -6 19 -7 93 93 E 9 15 30.08 1019 3 5 0.00 0.00
8:38 pm 20:38 Cloudy with Light Snow 21 -6 19 -7 93 93 E 8 13 30.08 1019 2 3 0.00 0.00
8:56 pm 20:56 Cloudy with Light Snow 22 -5.6 18 -7.8 85 85 ESE 8 13 30.01 1016 2 3 0.00 0.00
9:04 pm 21:04 Cloudy with Light Snow 21 -6 18 -8 86 86 E 8 13 30.07 1018 2 3 0.00 0.00
9:12 pm 21:12 Cloudy with Light Snow 21 -6 19 -7 93 93 E 8 13 30.07 1018 2 3 0.00 0.00
9:56 pm 21:56 Cloudy with Light Snow 21 -6.1 19 -7.2 92 92 ESE 8 13 30.02 1017 2 3 0.01 0.25
10:10 pm 22:10 Cloudy with Light Snow 21 -6 18 -8 86 86 ESE 9 15 30.07 1018 3 4 0.00 0.00
10:33 pm 22:33 Cloudy with Light Snow 21 -6 18 -8 86 86 E 7 11 30.08 1019 2 3 0.00 0.00
10:56 pm 22:56 Cloudy with Light Snow 21 -6.1 18 -7.8 88 88 SE 7 11 30.02 1017 2 3 0.00 0.00
11:06 pm 23:06 Cloudy with Light Snow 21 -6 18 -8 86 86 SE 7 11 30.08 1019 2 3 0.01 0.25
11:20 pm 23:20 Cloudy with Light Snow 21 -6 18 -8 86 86 E 6 9 30.08 1019 2 3 0.01 0.25
11:30 pm 23:30 Cloudy with Light Snow 21 -6 18 -8 86 86 E 8 13 30.08 1019 3 5 0.01 0.25
11:48 pm 23:48 Cloudy with Light Snow 21 -6 18 -8 86 86 ESE 9 15 30.07 1018 4 6 0.01 0.25
11:56 pm 23:56 Cloudy with Light Snow 21 -6.1 18 -7.8 88 88 E 10 17 30.01 1016 4 6 0.01 0.25

Powered by AerisWeather